Wind_Gust
5 6 6 6 6 6 7 13 11 11 9 11 8 10 11 9 8 11 8 10 9 8 6 8 8 10 11 11 11 7 9 18 13 19 13 10 10 14 15 20 24 23 24 25 23 24 23 19 19 22 21 22 23 23 23 24 23 21 22 22 23 23 24 24 25 25 24 25 25 25 25 26 26 25 26 25 24 24 24 25 26 25 25 24 25 25 25 26 26 26 25 25 25 25 25 24 24
6 5 5 6 7 8 8 8 11 7 11 7 15 8 10 7 7 9 10 10 8 10 10 10 12 14 16 15 13 12 13 15 11 11 8 10 17 15 14 21 23 23 23 23 23 22 23 23 20 21 21 23 23 23 23 23 23 22 22 22 23 22 23 24 24 25 24 24 24 25 26 26 27 27 25 25 25 24 21 23 25 25 25 25 25 25 25 25 25 25 25 24 24 23 23 21 21
6 5 6 6 7 10 10 10 13 6 11 15 14 17 9 9 10 8 8 7 6 6 8 9 10 10 10 11 9 10 11 12 13 11 12 9 17 11 16 20 22 23 23 22 23 21 23 23 20 21 21 23 22 23 23 24 23 23 22 21 21 22 22 22 23 24 24 24 24 25 24 25 25 28 26 25 23 20 19 20 24 24 24 24 24 25 25 26 25 25 24 23 22 21 20 19 17
6 6 6 7 7 9 7 9 9 15 10 12 12 13 10 10 11 8 7 11 13 8 8 9 9 7 10 8 10 7 12 10 11 9 13 9 9 14 19 21 21 23 21 22 20 21 20 24 22 21 22 22 23 23 23 23 23 22 22 20 20 21 21 21 22 23 23 23 23 23 23 24 24 25 25 25 22 19 16 18 19 23 23 21 22 23 23 23 23 23 23 21 21 20 19 17 15
6 5 6 7 11 8 9 7 9 9 16 15 10 9 10 11 10 9 8 11 14 12 9 6 7 11 8 10 9 9 12 11 13 10 12 9 9 15 20 20 22 22 22 22 21 21 22 23 20 20 21 22 23 23 22 22 22 22 21 21 20 21 20 20 21 23 24 23 22 22 23 23 23 24 25 25 21 20 20 17 17 18 19 20 19 20 21 19 22 22 22 21 21 20 19 17 16
7 6 6 7 6 9 15 10 10 14 14 11 9 12 10 9 6 8 10 12 8 10 10 9 8 9 7 9 10 8 12 8 9 10 9 10 14 16 19 19 22 22 20 19 18 19 23 21 20 19 19 22 22 22 23 23 23 22 22 20 20 20 19 19 20 21 23 23 21 21 22 22 22 24 24 24 22 21 20 20 19 20 21 20 20 21 21 21 21 21 20 20 21 20 19 18 17
6 8 12 9 10 12 10 8 9 10 17 15 12 11 13 9 10 9 12 13 9 8 8 8 8 9 10 9 9 11 11 10 6 9 8 13 16 18 18 19 21 21 21 19 20 19 23 19 18 18 20 22 22 23 23 23 23 22 21 20 20 21 20 20 18 19 22 21 21 20 21 21 22 23 23 22 21 20 20 20 21 20 21 20 20 20 20 20 21 21 20 21 20 19 19 19 18
6 8 7 7 9 8 8 6 11 12 11 14 8 15 15 12 8 10 12 6 8 7 9 8 7 7 8 6 9 9 11 11 9 7 10 16 17 19 19 21 22 21 21 19 19 20 21 17 17 17 20 22 24 23 24 23 22 20 21 21 20 20 20 20 19 17 19 20 21 20 20 20 21 22 22 21 20 20 20 19 19 20 20 19 19 19 19 19 20 20 21 21 19 19 20 20 19
8 11 6 10 9 8 7 10 11 9 15 12 18 17 18 14 13 12 13 8 8 8 9 12 6 9 12 8 9 9 10 11 11 11 14 16 18 19 20 20 21 22 20 21 20 22 22 16 15 17 20 22 22 23 23 23 21 20 21 21 19 18 18 19 20 19 17 17 19 19 18 19 19 19 19 19 20 18 18 18 17 17 18 19 19 20 19 19 19 20 21 21 20 19 20 20 20
9 9 7 10 9 12 8 10 10 11 13 9 14 16 14 11 13 15 11 10 13 9 12 7 7 6 10 8 10 7 9 8 12 15 12 14 16 18 19 19 20 21 20 21 21 22 21 20 15 16 17 20 20 20 20 20 21 20 20 19 17 17 17 17 16 16 16 16 16 17 16 18 17 17 18 19 19 17 17 15 14 14 15 16 17 18 18 18 19 19 21 21 20 19 20 20 19
10 12 7 10 7 8 13 10 13 13 12 11 16 18 19 14 13 12 13 7 6 12 9 7 8 9 10 8 8 9 8 10 13 14 13 15 16 18 19 19 19 18 21 20 21 21 23 21 19 15 15 17 17 17 18 18 17 17 16 16 16 16 17 16 17 16 16 18 18 18 17 16 17 15 15 17 19 18 16 14 13 13 13 15 15 16 17 18 18 19 19 19 18 17 18 19 18
10 8 9 8 9 11 9 13 13 14 14 10 12 8 7 7 10 12 12 13 12 9 11 9 12 11 9 6 10 9 9 12 13 13 14 15 16 18 19 19 18 17 18 20 21 21 22 23 21 19 14 14 15 16 16 16 15 15 16 16 15 16 17 15 15 16 18 19 16 17 16 15 16 13 12 15 16 16 15 13 12 12 12 14 15 16 17 18 18 17 17 18 17 17 18 19 19
10 7 10 10 8 9 7 9 11 10 13 11 12 9 7 7 11 11 14 11 11 13 9 12 8 7 9 7 11 10 11 10 13 14 16 16 17 19 18 18 19 19 19 20 21 21 21 20 22 22 19 18 15 13 14 14 14 15 16 15 15 16 16 16 16 16 17 17 19 17 17 15 14 14 15 15 15 14 14 12 12 12 13 13 14 15 16 17 17 17 17 16 16 17 18 18 19
10 12 11 11 8 7 9 9 7 11 10 8 8 12 10 5 8 10 19 16 12 11 9 8 9 6 7 7 9 10 11 12 14 15 17 16 17 18 17 18 18 19 18 19 20 21 19 19 19 21 22 21 21 18 14 14 14 14 15 15 15 16 17 16 16 15 15 17 18 16 17 16 15 15 16 13 14 12 12 12 12 13 14 14 13 14 15 16 16 16 15 15 16 17 18 19 19
8 7 9 8 7 6 8 12 8 8 10 7 9 12 11 7 6 8 8 18 10 7 10 11 8 8 11 11 11 11 15 13 15 15 18 18 16 17 17 17 16 15 16 16 18 20 20 19 19 18 18 19 21 19 18 21 15 15 15 16 16 16 16 16 16 15 16 17 19 19 17 18 17 17 15 15 15 11 12 12 11 12 13 14 14 13 14 15 15 15 15 14 15 17 18 19 19
10 10 8 10 9 9 10 11 7 8 14 6 8 9 7 10 7 6 7 8 15 8 8 12 10 8 8 7 9 15 19 18 16 16 18 17 16 16 17 17 16 14 13 16 15 16 18 18 18 18 18 18 17 17 20 20 19 16 16 17 18 17 17 16 16 17 18 18 20 18 16 19 18 19 18 19 16 13 12 11 12 12 12 14 14 13 13 14 14 15 14 14 15 17 19 19 19
7 10 10 8 13 11 9 11 11 8 12 9 10 15 12 8 7 7 6 9 19 9 9 8 7 8 7 9 12 20 19 19 18 18 17 17 18 16 16 16 14 14 14 15 15 16 16 17 17 18 17 17 18 18 18 20 22 20 17 17 16 15 16 18 19 19 16 17 19 15 14 19 19 19 21 19 16 16 12 12 12 13 13 13 13 13 12 13 13 13 15 16 15 17 17 19 18
8 12 11 11 10 13 12 13 15 8 9 13 14 13 11 6 8 9 10 15 12 9 9 8 10 11 10 11 17 19 20 20 18 18 17 18 17 17 19 17 17 16 17 15 16 16 19 17 18 17 18 18 19 19 19 19 22 20 20 21 21 20 17 16 19 20 16 20 15 19 18 18 18 19 18 15 15 16 16 12 12 14 14 14 13 12 12 11 11 13 16 16 17 18 18 21 17
10 9 11 17 14 15 10 10 10 7 10 11 13 10 7 7 8 8 10 9 11 12 8 7 6 11 12 15 17 18 19 19 18 17 18 18 18 18 18 19 17 18 17 17 16 17 17 19 17 18 17 20 19 18 19 19 21 19 20 20 19 16 19 20 19 20 18 18 19 17 16 15 15 15 17 16 15 12 16 13 12 14 16 15 13 12 12 11 11 13 15 16 15 16 18 17 17
9 12 14 20 11 10 9 8 9 12 9 16 16 11 9 7 6 6 7 11 9 14 11 7 8 10 14 16 17 18 18 19 18 18 18 17 16 17 16 19 18 17 18 18 18 17 17 18 19 19 19 19 18 17 17 19 19 19 19 19 18 18 19 18 17 17 16 17 17 16 15 16 15 14 14 16 13 14 15 11 12 13 15 15 14 13 12 12 14 14 14 14 12 12 14 16 16
10 10 18 12 7 12 9 11 14 13 5 9 9 9 10 8 7 6 13 12 9 11 12 11 17 18 19 18 18 18 18 19 18 18 18 17 16 16 16 16 18 18 14 15 15 18 19 19 19 19 19 19 17 17 17 17 17 19 18 19 18 17 17 16 16 15 16 17 16 15 16 15 15 14 15 17 16 15 14 14 15 15 14 14 11 15 14 16 12 15 16 14 13 14 14 14 13
13 16 7 9 8 8 11 11 8 6 6 5 7 11 10 10 7 10 17 11 11 13 10 15 10 19 21 21 19 18 19 19 19 18 18 18 19 19 15 14 12 15 15 16 16 16 19 19 17 17 18 16 17 17 17 17 19 18 18 18 18 17 16 15 14 15 15 17 17 16 16 15 15 14 15 14 14 14 14 14 13 14 12 10 10 14 13 13 12 13 14 14 12 12 12 12 12
17 9 10 13 10 15 6 5 6 6 9 9 12 7 9 7 10 7 7 7 7 11 13 9 14 19 18 18 19 18 18 19 19 19 19 19 19 17 16 17 17 17 17 17 17 15 18 18 18 18 18 18 18 17 17 17 17 16 18 19 18 17 16 16 15 16 16 15 16 16 17 16 15 15 15 15 15 15 14 14 13 12 12 11 9 12 12 12 12 12 13 13 11 12 13 12 12
9 15 6 10 10 19 9 14 11 9 5 12 8 9 11 7 7 6 10 5 11 11 8 17 19 19 19 19 17 18 18 19 20 19 18 19 18 18 18 21 16 16 15 15 15 16 16 18 18 20 20 21 19 19 19 18 17 18 18 18 18 18 18 18 16 16 16 16 15 15 15 16 16 17 15 15 15 15 15 13 11 12 11 11 10 10 13 12 11 10 12 13 14 13 14 13 13
17 17 10 10 8 11 11 11 11 9 11 14 7 8 11 9 8 10 10 9 8 9 14 19 20 19 18 18 17 17 17 17 19 18 15 16 16 17 14 19 15 16 16 15 16 15 17 16 19 20 20 22 20 20 18 14 14 15 17 17 18 17 17 16 17 16 14 14 14 16 16 16 18 16 17 17 15 15 15 14 14 15 12 12 11 10 10 12 12 12 13 15 14 13 12 12 13
16 18 5 6 10 8 9 12 12 8 11 10 8 10 11 9 6 8 7 7 8 11 13 16 18 18 17 16 16 16 16 17 17 18 19 18 17 17 19 17 18 19 20 16 18 16 17 17 18 21 18 16 14 13 15 14 16 17 17 16 17 17 16 14 13 14 15 15 13 15 18 18 18 18 17 16 16 13 13 14 13 14 13 10 11 10 10 10 11 12 12 13 16 14 14 13 12
13 15 14 16 12 8 8 9 9 6 10 11 11 9 8 7 10 10 5 8 12 12 14 13 15 16 15 14 14 14 16 17 17 16 15 15 17 19 19 15 20 20 17 18 17 16 13 14 14 13 13 11 12 15 15 14 17 16 15 14 13 15 13 13 12 13 14 14 14 13 15 17 18 18 18 17 14 15 15 14 14 12 14 11 9 10 9 9 9 11 12 13 14 15 13 13 13
8 10 6 12 10 9 13 11 15 7 13 9 13 9 9 6 7 9 9 13 12 16 14 13 13 14 15 14 14 13 14 15 16 15 16 17 19 19 18 22 21 18 19 20 17 19 16 15 12 12 13 13 12 13 13 13 14 14 15 13 15 13 13 13 13 14 15 14 15 14 16 16 16 17 17 16 15 15 15 16 15 13 13 11 9 9 11 10 10 11 8 8 9 11 13 13 11
7 11 10 9 8 13 8 14 8 9 11 8 13 9 10 11 10 6 11 13 12 12 14 13 12 13 14 14 14 14 14 14 15 16 17 17 16 18 20 18 20 18 16 16 17 16 18 17 16 15 14 12 12 12 14 11 11 16 15 14 12 12 12 12 15 14 14 14 15 16 16 18 18 17 17 16 15 16 17 15 15 14 11 12 10 9 10 10 11 12 11 9 11 12 14 14 14
9 7 8 9 9 12 10 6 5 8 7 10 10 10 13 13 10 8 14 16 13 13 12 13 12 13 13 13 13 13 13 14 15 16 16 16 16 18 18 16 16 14 14 15 16 17 14 14 13 12 13 12 11 10 11 11 10 10 13 13 12 13 13 14 13 14 15 14 15 16 17 18 17 16 17 17 16 16 17 17 16 15 13 11 11 11 11 11 11 12 13 12 11 13 15 15 15
18 7 7 8 9 12 7 6 7 9 6 10 7 12 13 10 13 12 16 18 20 16 15 13 13 13 13 13 13 13 13 13 13 14 14 14 12 13 13 11 13 10 11 13 17 16 15 14 12 15 13 12 12 11 12 12 10 11 11 12 13 13 12 14 15 15 15 15 15 16 18 17 16 16 17 17 16 17 18 18 17 16 14 12 12 13 12 11 11 12 14 14 13 13 14 14 14
8 18 14 8 11 12 13 7 11 14 8 7 8 12 14 10 12 11 17 19 15 19 17 15 14 14 14 12 13 13 12 12 12 12 12 9 9 9 10 10 12 12 14 15 14 13 14 14 14 14 13 12 12 13 10 11 11 11 10 12 14 14 14 13 15 15 15 15 16 16 14 15 16 15 13 14 16 17 17 14 15 14 14 14 14 12 13 14 11 10 11 13 15 15 15 14 13
9 12 7 12 10 10 11 6 7 6 6 7 10 13 6 8 11 7 12 15 11 12 16 16 16 14 14 14 12 12 11 11 10 10 9 10 9 10 10 11 13 15 14 15 15 13 13 13 14 14 13 13 12 13 12 10 11 10 11 12 14 16 16 14 13 12 14 15 13 13 16 12 14 14 12 11 11 16 15 15 12 14 14 16 14 13 14 13 13 13 13 11 12 17 16 15 13
13 7 10 7 14 9 10 11 7 6 7 13 8 10 8 9 11 8 13 14 13 13 15 16 15 14 15 12 12 13 13 14 15 11 8 9 9 9 9 11 12 12 13 14 14 15 14 12 14 14 9 9 11 11 10 10 13 13 11 10 13 14 14 14 12 11 13 12 15 12 12 12 12 11 11 10 11 14 17 16 14 14 14 14 13 14 14 14 13 14 15 13 13 16 15 16 16
15 14 11 10 7 6 8 10 7 5 7 12 9 12 12 9 10 10 14 13 15 14 14 16 17 16 16 12 13 14 14 14 17 10 9 8 9 9 11 12 12 11 12 13 13 13 12 13 12 10 9 9 9 11 10 11 13 12 12 10 12 17 13 12 11 13 11 10 13 11 11 11 10 10 10 10 10 13 15 14 13 13 14 12 13 14 14 15 15 15 17 15 12 12 15 16 17
16 15 14 9 13 12 12 10 8 5 7 10 12 19 17 12 9 9 9 13 14 14 11 12 13 14 13 13 15 16 15 15 13 11 9 9 10 11 11 11 11 11 11 12 12 12 11 11 10 10 9 10 9 10 12 13 11 12 14 15 14 14 15 13 12 11 10 11 13 13 13 12 10 9 9 8 9 9 11 14 14 14 14 15 16 16 15 18 17 17 16 17 16 14 13 15 17
12 10 11 9 10 8 10 10 11 7 6 11 13 10 8 12 13 15 10 8 13 13 15 16 16 16 14 13 16 16 14 12 12 12 11 11 12 13 12 11 12 10 10 12 11 10 10 11 10 10 12 13 14 14 14 14 12 12 12 16 16 17 16 13 12 12 12 12 15 15 13 13 13 12 12 14 15 13 10 10 12 15 16 17 15 15 14 15 17 16 18 17 19 18 15 15 16
14 13 10 10 8 11 9 7 8 8 7 8 7 8 7 12 13 14 8 9 14 14 14 17 17 15 13 12 17 17 16 8 10 13 12 13 13 12 12 11 10 10 9 9 9 10 9 9 11 11 10 11 12 13 13 14 15 16 15 17 14 16 15 16 16 16 17 16 17 18 17 16 16 16 14 14 14 13 13 12 15 15 15 15 15 14 14 14 15 18 18 19 18 19 19 17 20
6 9 9 9 11 10 13 5 6 7 7 9 9 12 12 12 12 14 14 8 9 8 11 12 13 14 12 11 11 14 13 11 12 13 12 14 13 13 12 10 10 9 8 9 9 9 11 11 11 12 14 15 15 15 12 11 12 12 14 14 16 15 17 18 18 17 17 16 16 16 18 18 16 15 15 15 16 15 14 14 16 14 16 16 16 16 15 16 16 18 19 20 18 16 17 18 20
9 10 11 13 9 12 15 7 7 9 7 7 11 18 13 13 8 12 14 11 8 11 9 7 7 11 11 8 7 9 10 10 10 11 13 13 14 14 12 11 10 9 9 8 10 11 12 12 11 12 13 13 12 12 12 11 14 13 11 13 14 16 15 18 17 16 15 14 14 15 15 15 16 15 16 16 13 13 13 12 13 15 16 17 17 18 17 17 14 13 12 16 21 19 17 19 17
6 7 9 8 9 8 11 12 11 5 6 8 17 17 14 16 13 15 15 10 12 18 14 16 15 13 7 10 11 9 10 11 11 13 13 12 13 13 12 10 10 9 8 7 9 10 10 10 13 14 14 13 13 14 13 11 12 11 11 12 13 12 11 14 15 15 15 15 16 16 19 18 18 17 17 17 16 15 13 13 14 14 14 16 16 17 18 18 20 19 16 18 21 21 20 18 17
9 9 12 11 8 7 8 7 8 13 9 11 8 17 9 14 10 13 14 14 15 15 16 17 15 14 13 7 12 13 13 10 12 14 13 13 14 13 11 10 9 7 7 6 6 9 11 12 11 12 12 13 13 14 14 13 12 12 14 14 15 14 16 19 20 20 20 19 19 16 16 17 18 17 17 17 17 15 15 16 13 14 16 16 15 13 15 16 15 20 19 16 15 13 20 20 19
14 17 14 11 10 8 6 8 7 11 13 13 7 15 14 9 13 17 15 14 14 14 18 17 18 18 14 11 10 13 14 16 15 15 13 13 12 13 12 9 7 6 5 5 7 10 13 13 13 13 14 13 14 12 13 12 12 13 16 19 18 18 20 20 17 16 18 17 16 16 16 15 16 16 17 17 15 16 15 16 15 15 13 14 14 15 16 18 19 17 16 17 17 14 18 21 22
20 6 16 12 10 11 12 10 11 8 8 6 8 12 21 17 11 10 15 10 15 17 18 18 20 20 16 13 11 12 14 13 14 14 14 12 11 11 10 8 7 6 6 8 11 13 14 14 13 13 14 14 13 12 14 14 14 17 19 16 18 18 19 16 16 15 13 14 16 17 16 15 16 17 17 17 17 18 18 17 15 17 17 17 16 17 17 15 14 14 16 13 13 19 20 22 22
13 7 14 18 19 15 9 10 8 7 8 12 10 8 19 10 11 9 12 11 15 17 17 18 18 18 17 16 16 13 12 14 13 14 14 13 10 9 8 8 9 9 10 11 12 13 14 14 14 13 14 16 15 14 13 12 16 18 18 17 15 14 13 12 13 13 13 14 15 15 15 15 15 17 18 18 18 19 18 18 18 17 17 17 17 15 13 13 14 17 19 19 21 22 20 17 21
9 11 10 10 11 11 8 8 10 7 10 12 14 8 17 10 11 13 9 11 13 14 15 16 15 15 15 15 15 15 15 15 16 16 16 16 14 13 12 10 12 12 11 11 11 13 15 15 15 15 15 15 16 16 16 14 15 16 16 18 18 15 13 14 13 13 14 14 15 15 15 17 17 17 16 17 16 16 16 17 19 18 14 13 14 15 14 16 18 18 23 26 24 22 19 19 20
13 13 15 10 11 8 8 11 7 10 12 11 8 9 13 19 7 9 9 9 8 12 12 14 14 14 15 15 15 16 16 16 16 16 17 16 15 15 14 14 12 12 12 14 15 15 14 15 15 16 18 17 17 17 14 13 13 15 18 18 17 17 15 14 16 16 16 16 19 18 16 18 18 17 16 18 18 17 16 18 17 16 13 15 16 13 17 19 19 22 24 18 16 16 16 18 17
17 14 13 15 9 10 9 8 11 12 13 9 9 7 11 19 10 9 7 8 9 10 9 12 14 14 14 14 15 16 16 16 16 16 17 16 16 16 14 14 13 13 14 16 17 17 16 14 15 16 17 18 16 14 12 12 15 17 18 17 16 15 15 15 16 18 17 19 19 19 17 17 17 17 17 15 16 18 15 14 14 16 18 17 15 14 14 17 18 22 21 24 24 19 18 19 17
12 11 19 24 17 15 16 12 17 17 14 9 8 9 10 14 9 11 8 10 9 9 11 12 13 14 15 15 15 16 15 15 17 17 16 16 15 16 15 14 14 15 15 15 17 16 15 14 14 14 17 17 16 16 14 13 14 16 18 17 16 15 16 18 17 17 17 17 18 18 16 17 17 19 20 20 16 15 16 17 18 16 17 16 16 15 17 19 18 20 20 20 18 21 21 20 20
15 25 21 27 27 21 14 10 8 9 10 7 8 8 12 12 11 7 9 8 10 10 13 14 14 16 16 15 16 16 17 16 17 16 17 16 16 16 16 16 15 14 14 15 15 17 16 16 14 13 16 15 14 14 13 13 16 17 17 17 14 14 17 18 17 17 17 17 18 18 18 17 17 17 17 18 16 16 17 14 14 14 13 13 13 14 17 20 19 20 19 20 21 21 20 21 19
19 10 22 16 19 27 22 22 22 18 13 7 8 13 13 15 14 11 8 7 11 11 13 15 16 16 16 15 18 19 17 16 17 18 17 17 17 16 16 17 16 17 18 17 16 16 16 15 14 12 14 16 15 14 12 15 17 16 15 14 11 11 14 16 15 15 16 17 19 19 17 16 15 16 17 15 18 19 18 15 17 18 16 15 16 16 17 17 14 14 14 16 17 16 18 17 14
13 11 12 16 21 14 14 16 11 13 13 9 10 9 8 8 8 10 7 8 12 12 14 14 17 16 16 19 19 17 16 17 16 16 17 17 17 17 17 16 17 16 17 17 17 16 16 15 14 13 12 13 13 14 15 15 16 15 13 12 12 11 11 14 15 14 16 16 17 19 16 15 14 15 16 17 19 19 21 20 19 19 18 19 19 20 18 16 18 17 16 17 18 18 15 16 15
20 14 22 15 11 20 16 7 8 7 14 8 6 8 9 11 12 12 8 7 11 12 14 15 15 15 16 18 18 17 16 17 17 17 16 18 17 17 17 17 17 17 17 18 18 15 16 15 14 14 15 14 15 15 15 15 16 17 14 10 10 10 12 14 15 14 15 16 15 17 15 13 14 14 15 16 18 19 20 20 20 20 19 19 18 16 15 15 15 16 17 17 18 17 17 17 16
24 23 17 9 7 11 18 18 8 9 15 11 5 8 10 13 15 20 13 12 10 11 14 14 14 15 17 17 17 16 15 14 15 16 16 17 17 18 18 17 16 17 16 16 17 16 15 15 16 16 15 15 15 15 15 15 15 15 14 11 9 11 13 15 16 16 16 13 14 14 11 12 14 14 13 15 14 16 15 17 17 18 17 17 16 16 15 16 15 13 11 13 14 17 18 15 16
19 18 18 22 12 16 8 19 13 16 12 12 7 7 11 16 9 18 20 18 15 13 12 14 15 16 16 14 15 15 15 15 15 14 15 15 16 18 17 16 18 19 18 17 17 16 15 14 15 15 16 16 15 16 15 16 14 14 13 12 12 13 15 16 18 21 18 15 14 14 12 14 15 13 11 12 12 12 12 14 15 16 16 17 16 16 15 14 16 15 16 15 15 16 17 15 15
10 14 18 8 15 10 16 16 13 19 11 11 6 7 15 19 11 18 20 18 16 15 13 14 17 16 14 14 13 14 13 13 13 14 15 16 16 16 18 19 19 19 17 17 16 16 18 17 16 17 16 15 15 16 16 16 16 14 13 12 11 13 13 15 18 22 21 20 15 11 10 11 14 16 12 11 14 16 16 15 16 16 16 17 19 17 15 16 15 15 17 15 13 16 14 14 13
14 23 16 12 12 9 15 10 9 15 21 14 17 12 18 15 12 15 19 20 18 16 16 15 15 15 15 14 14 12 13 12 13 14 15 17 17 17 17 17 18 16 16 16 16 17 16 18 18 17 17 17 17 17 16 16 16 16 13 12 11 11 14 17 19 20 21 20 16 14 13 12 12 15 15 17 16 18 18 16 15 15 16 18 19 19 22 21 19 16 17 15 14 15 15 14 13
21 21 18 17 18 19 20 10 8 10 17 20 17 18 14 13 7 13 20 20 19 17 19 17 15 15 15 14 14 13 14 14 14 15 15 16 16 19 17 16 16 17 18 18 17 16 16 20 19 19 18 18 18 19 18 18 18 16 13 12 10 10 15 15 13 13 17 16 16 14 16 18 19 20 16 18 18 17 16 15 15 16 16 17 18 21 21 21 20 20 16 12 15 15 15 14 13
Wind_Speed
1 1 1 1 1 1 1 3 4 2 1 3 1 3 1 3 3 5 2 5 3 3 1 3 3 4 3 3 4 2 4 6 2 3 2 2 1 6 7 13 15 14 15 14 13 13 14 15 15 17 17 18 17 16 16 17 17 17 17 16 16 17 17 17 17 16 16 16 16 16 17 17 16 13 13 14 15 14 16 17 18 18 18 17 18 19 20 20 20 20 19 19 19 19 18 18 17
1 1 0 2 1 2 2 2 2 1 1 1 4 1 2 2 1 3 4 4 3 3 4 3 5 3 2 4 6 6 7 8 5 4 3 4 9 7 9 13 15 15 14 13 12 12 13 14 15 16 17 18 18 17 17 17 17 17 17 16 16 16 16 16 16 15 15 15 15 16 17 16 16 14 11 12 13 14 13 15 17 18 18 18 18 19 19 20 20 19 19 19 18 17 17 16 16
1 1 0 1 0 3 3 1 3 1 3 6 2 6 3 3 3 2 2 2 1 1 3 4 4 2 5 6 3 4 4 6 6 5 4 3 9 5 10 12 14 15 14 12 12 12 12 15 16 17 18 18 18 18 18 18 18 18 18 17 16 16 16 15 16 15 16 16 16 17 16 16 15 14 13 10 10 11 12 14 17 18 18 18 18 18 19 19 19 19 18 18 17 16 15 14 13
1 1 1 0 2 2 1 2 1 4 3 1 3 4 3 4 6 2 0 5 7 3 3 4 2 2 4 3 5 1 6 4 5 4 4 3 3 8 11 13 14 13 12 11 11 11 11 15 15 15 18 18 18 18 18 18 18 18 17 16 16 16 15 15 15 15 15 15 16 16 16 16 15 16 13 9 7 9 11 12 14 17 16 16 16 17 17 17 17 17 17 16 16 15 14 13 12
1 1 1 1 1 2 1 1 1 2 6 4 1 1 5 2 4 2 3 5 8 6 4 1 1 5 3 4 3 2 4 5 7 5 4 4 4 8 11 13 13 12 12 12 11 11 12 18 15 15 16 18 19 18 18 18 18 18 17 17 16 16 16 15 15 14 15 15 16 17 16 16 16 16 14 9 6 8 10 10 12 13 14 13 12 12 12 13 16 16 15 15 15 15 14 14 12
1 1 0 1 1 2 2 3 3 5 2 3 3 4 4 3 2 3 5 6 4 4 5 4 1 2 1 4 3 2 5 1 3 4 2 4 8 10 12 11 13 12 11 11 10 10 12 17 16 15 16 18 18 18 18 18 17 18 17 16 16 16 15 16 14 15 15 15 16 16 16 16 16 15 12 10 9 9 11 13 12 12 14 15 15 14 14 14 15 14 14 14 15 15 15 14 13
1 2 2 2 3 1 2 2 3 3 5 6 4 3 6 2 4 4 5 7 4 3 3 2 3 4 3 2 3 4 5 5 1 3 3 7 10 12 12 11 12 13 13 10 11 10 15 15 14 15 16 18 18 18 19 19 19 18 17 16 16 16 16 16 14 14 14 14 15 15 16 16 16 15 14 11 9 10 11 12 12 11 12 13 14 14 14 14 13 13 14 14 14 15 15 15 15
1 2 1 1 2 1 2 1 4 3 1 6 2 8 2 3 3 4 7 1 1 2 4 3 2 2 3 0 1 3 5 6 4 2 5 8 11 12 12 12 13 13 12 11 11 11 16 13 13 14 16 17 19 19 19 19 18 17 17 17 16 15 16 16 15 13 13 14 15 14 15 16 15 15 14 12 11 10 10 10 10 11 11 11 12 14 13 13 13 13 14 14 14 15 16 16 15
2 2 0 2 3 2 1 3 3 2 6 5 9 10 10 7 8 7 7 3 3 3 4 6 1 3 5 3 3 3 4 5 5 6 8 9 11 13 10 12 13 12 12 12 11 12 13 13 12 14 16 17 17 19 18 19 17 16 17 17 16 14 14 16 16 14 12 12 14 15 15 15 15 14 14 13 13 12 12 11 10 10 10 11 12 12 13 13 13 13 13 13 14 15 16 16 16
3 2 2 1 2 4 2 2 3 2 5 3 7 9 7 5 7 9 6 4 7 3 6 2 1 1 4 3 3 2 3 4 7 8 8 9 10 12 12 12 13 14 12 12 12 12 11 16 12 13 13 15 16 17 17 16 17 16 16 15 14 14 14 14 14 13 13 12 12 13 14 15 14 13 13 13 13 12 11 11 10 9 9 10 11 11 11 12 13 13 12 12 14 15 15 15 15
2 3 1 2 2 2 5 3 5 6 6 4 9 10 9 6 7 6 8 2 1 5 5 2 3 3 4 3 2 3 4 5 7 8 8 9 10 12 11 12 12 12 12 13 12 12 12 13 16 12 12 12 12 14 14 15 14 14 13 13 13 14 14 13 12 13 13 13 12 13 14 14 13 12 12 12 12 11 10 10 10 9 9 10 10 10 10 11 12 12 11 11 12 13 14 15 15
3 2 2 2 3 3 1 4 6 6 8 4 5 2 1 3 4 6 7 7 6 4 5 4 1 5 3 1 3 4 5 7 8 8 9 9 9 11 11 10 11 11 12 13 13 12 12 13 12 14 12 11 12 13 12 13 13 13 13 13 13 13 14 12 12 13 15 14 13 11 13 13 13 11 11 12 12 11 10 10 10 10 10 10 10 10 10 11 11 11 10 10 11 12 14 15 15
1 1 3 2 1 2 1 3 4 4 6 2 5 3 2 3 5 2 8 5 6 7 4 5 3 2 3 1 4 5 6 6 8 9 9 9 10 10 11 10 11 12 11 12 12 13 13 11 11 12 13 15 12 11 11 12 12 12 13 13 13 13 13 13 13 12 12 13 14 13 13 13 12 11 11 12 12 10 10 10 10 10 11 11 10 9 9 10 10 10 10 10 11 12 14 15 15
3 2 3 3 2 0 2 3 1 4 1 2 1 7 4 1 3 4 9 9 7 5 3 3 4 1 2 0 3 4 5 7 8 9 9 10 9 10 11 10 11 11 12 12 12 13 12 11 10 12 13 12 12 12 12 11 12 12 12 13 13 13 14 13 13 12 12 14 14 12 12 13 12 13 12 11 11 9 9 9 9 10 11 12 10 9 8 9 9 8 8 9 10 12 14 14 15
2 1 1 1 2 0 2 4 2 2 1 1 4 7 5 2 1 3 1 10 5 2 4 5 3 2 3 4 4 4 7 8 9 9 11 10 11 10 11 9 10 9 10 10 11 12 12 11 10 10 11 11 12 9 9 12 12 12 12 13 13 14 13 13 13 12 13 14 16 15 14 14 14 13 12 11 11 10 10 9 8 9 10 12 11 10 8 8 8 7 8 9 10 12 13 14 14
2 3 1 3 2 3 2 4 2 2 1 1 3 5 2 5 1 1 1 3 6 2 2 3 5 3 3 2 4 8 12 11 10 10 11 11 10 10 10 10 9 8 7 8 8 9 11 11 10 9 9 10 10 9 11 12 13 13 13 14 14 14 14 14 13 14 14 15 15 14 13 13 13 12 14 11 11 11 10 8 8 9 10 11 12 11 9 7 7 7 6 8 11 12 13 13 12
1 1 3 1 5 4 2 4 4 1 2 3 2 9 6 1 2 2 0 3 11 4 4 3 3 2 3 3 6 13 12 12 11 12 11 9 9 8 7 8 7 8 6 8 8 8 9 10 10 8 9 10 10 10 9 11 13 15 13 14 13 12 13 14 14 14 13 14 14 12 11 10 10 9 11 10 11 8 10 10 9 10 11 11 10 11 9 8 6 5 7 10 12 12 11 12 12
2 4 2 4 1 5 4 5 6 3 3 7 9 8 6 0 3 3 4 8 6 4 3 3 4 5 5 6 10 12 12 13 11 11 10 9 8 8 8 7 8 8 8 7 8 9 9 9 10 10 9 11 10 9 9 9 11 13 12 12 12 12 12 13 12 11 12 11 12 11 9 8 9 9 9 11 7 8 9 10 9 9 10 11 10 10 10 8 6 6 8 12 14 13 13 9 9
3 2 3 7 5 2 2 1 4 2 4 6 7 5 3 1 3 1 1 3 6 6 1 1 2 6 7 9 11 12 12 12 12 10 11 10 9 10 9 8 8 10 8 8 7 10 8 10 9 10 10 11 12 11 9 9 12 10 11 11 9 11 12 12 11 11 10 10 10 9 8 7 7 7 8 8 7 8 9 10 10 9 8 11 11 10 10 9 6 6 9 9 13 13 9 7 7
2 4 5 8 3 3 4 2 4 6 5 9 10 5 4 3 2 1 2 5 4 7 4 2 3 5 8 10 11 11 12 12 10 12 11 11 9 10 10 10 9 9 10 9 9 8 8 9 10 11 10 11 10 8 9 9 10 9 9 9 9 9 10 9 9 9 8 9 8 8 7 8 7 6 9 11 9 6 7 9 10 10 9 10 11 9 10 9 9 9 10 11 11 8 6 6 6
3 3 7 2 1 5 3 6 7 6 1 5 5 5 5 4 2 2 5 5 4 5 5 4 5 11 12 11 11 11 12 12 12 11 11 11 10 9 8 9 9 9 7 8 7 9 10 10 10 10 10 10 10 8 9 8 9 9 8 9 8 7 8 8 8 7 8 9 9 7 7 7 7 6 7 8 7 6 6 6 6 6 6 7 8 7 6 6 5 7 7 6 5 5 6 5 5
5 8 2 2 2 3 5 4 2 1 2 1 2 6 5 3 2 4 10 4 3 4 2 3 5 11 13 13 12 11 12 12 12 12 11 12 12 11 9 8 7 8 7 7 9 9 10 10 9 9 10 9 10 9 8 8 9 8 9 9 9 8 8 7 7 7 7 9 8 8 8 7 7 6 7 7 7 6 6 6 6 6 5 4 4 6 5 5 5 5 6 6 5 4 5 5 4
6 4 5 7 5 8 1 1 1 2 2 5 7 2 3 1 5 2 2 1 2 5 6 1 8 12 12 11 12 12 12 13 12 12 12 12 12 12 9 9 9 8 8 9 9 8 10 11 10 10 10 10 11 10 8 8 8 8 8 9 8 8 7 8 7 7 8 8 8 8 8 8 7 7 7 7 7 7 6 6 5 4 5 4 3 4 5 5 4 5 5 6 4 4 5 5 5
4 5 2 6 6 12 4 8 3 5 2 6 1 2 5 3 3 2 5 0 6 5 3 10 12 12 12 12 11 12 12 12 13 12 11 10 11 12 11 12 8 7 7 8 7 8 8 11 11 12 11 11 11 11 11 9 9 9 9 9 8 9 8 8 7 8 8 8 7 7 8 7 7 7 7 7 7 7 7 6 4 4 4 4 4 4 5 5 4 4 5 6 6 5 5 5 5
9 7 5 4 3 5 6 6 4 3 7 8 3 3 4 5 2 5 5 4 3 4 8 12 12 12 11 11 11 11 11 11 12 12 8 8 9 9 9 10 8 9 9 8 8 8 10 9 12 12 11 11 8 8 9 7 7 8 8 8 9 9 8 7 9 8 7 6 7 8 8 8 8 7 8 7 7 7 7 6 6 6 3 4 4 3 4 5 5 5 5 6 6 5 5 5 5
8 11 1 2 5 2 3 7 4 3 3 3 3 2 4 3 2 4 3 2 1 5 7 10 11 12 11 10 10 10 10 11 10 10 11 8 9 10 10 10 9 10 11 9 10 9 10 10 10 10 8 7 5 7 7 7 7 8 7 8 8 8 8 6 7 7 7 7 6 8 9 8 8 8 8 8 7 6 6 7 6 6 5 2 4 4 3 4 5 4 5 6 7 6 6 5 5
7 10 8 9 7 4 3 4 4 2 4 6 6 4 1 1 2 3 1 1 4 6 7 7 9 10 9 9 8 8 10 10 10 9 8 8 10 10 10 9 11 11 10 9 9 8 6 6 5 7 7 6 6 6 6 6 8 8 7 7 6 7 6 6 5 6 6 6 6 7 8 9 8 8 8 8 7 7 7 7 6 5 6 4 3 4 3 3 3 4 5 5 6 6 5 5 5
3 5 2 7 5 4 7 6 9 2 5 3 8 1 3 2 2 2 2 4 5 5 7 7 7 8 8 9 8 8 8 8 8 9 10 11 9 10 11 11 12 8 8 10 9 10 6 6 6 5 5 5 6 7 6 6 6 6 6 6 6 6 6 5 5 6 7 6 7 7 7 7 7 7 8 8 8 8 7 8 7 6 6 5 3 3 4 3 4 4 3 3 4 4 5 5 4
3 6 4 3 1 5 5 7 1 3 3 4 8 5 6 5 5 1 3 6 6 5 6 6 6 6 7 8 7 7 7 8 8 8 10 9 8 9 10 9 8 8 7 8 8 8 8 7 5 4 4 5 4 4 6 5 3 7 6 7 5 5 5 5 6 6 6 6 6 7 8 9 7 6 7 8 7 8 9 8 8 6 5 5 4 4 4 4 4 5 4 3 4 5 5 6 5
4 3 3 3 3 5 2 2 1 4 2 2 4 4 5 3 4 3 8 8 7 6 5 6 5 5 6 7 6 6 7 8 8 8 7 7 7 7 7 6 6 5 5 5 5 6 6 6 3 5 5 6 6 4 4 5 4 4 7 5 4 5 5 6 6 6 6 6 7 7 8 9 7 6 7 7 8 7 9 9 8 7 6 6 5 4 4 4 4 5 5 5 4 5 6 7 7
7 3 0 2 3 3 1 2 3 4 2 4 3 5 2 2 4 6 10 10 10 8 6 6 5 5 5 6 6 6 7 6 7 7 6 5 4 4 5 4 5 6 5 7 8 8 8 7 4 6 7 7 7 6 6 6 5 5 4 5 4 5 4 4 5 7 7 6 5 6 7 7 7 7 7 6 7 8 9 8 8 7 6 6 5 5 5 4 4 5 5 5 5 5 6 6 6
2 7 5 1 4 2 4 2 5 5 3 2 3 5 3 2 1 4 9 9 6 3 6 5 5 5 5 5 6 5 5 5 5 5 5 4 4 4 5 6 7 7 8 8 7 6 7 7 6 7 7 7 6 6 4 4 5 5 3 2 4 5 3 4 4 6 6 5 5 3 1 4 4 5 5 5 7 8 8 7 5 7 8 6 6 6 6 6 5 4 5 5 6 7 7 6 5
2 5 2 5 2 2 3 2 2 0 2 2 5 1 1 3 1 2 6 7 6 2 3 4 5 5 4 4 5 5 5 5 3 3 4 5 4 4 4 6 7 8 8 7 7 6 6 7 7 8 7 7 5 6 5 4 4 3 4 3 2 2 3 5 4 5 5 5 3 3 5 2 4 4 2 5 3 3 5 6 5 7 7 7 6 6 6 6 5 5 5 5 4 7 6 7 6
5 1 3 1 7 3 2 1 3 1 3 6 3 3 2 2 3 2 7 7 7 5 6 5 5 4 3 3 4 3 4 3 4 3 3 4 3 3 3 4 5 5 5 5 6 6 6 5 6 6 4 5 6 6 6 6 7 7 6 4 5 6 8 7 5 5 4 0 3 2 3 2 2 2 1 1 4 3 4 4 5 7 6 6 6 6 6 6 6 6 7 6 5 5 6 7 7
6 6 5 3 1 1 0 2 2 2 1 6 4 6 6 3 2 2 7 7 7 6 5 4 5 4 3 5 4 2 4 5 5 3 4 3 5 4 4 4 5 4 3 4 5 5 4 5 4 5 4 5 5 6 6 6 7 6 5 4 7 9 7 5 4 5 4 4 4 4 5 6 5 5 5 4 3 4 4 5 4 4 5 5 6 7 6 7 7 7 8 7 5 5 6 7 7
9 9 7 4 6 4 4 2 2 1 2 4 6 9 9 6 3 3 4 7 7 7 5 4 5 4 4 6 3 3 3 7 5 4 3 4 3 5 4 4 4 3 3 4 4 4 5 4 5 5 5 5 5 6 6 6 5 5 5 4 5 6 6 5 5 5 4 5 6 6 6 5 6 5 5 5 4 4 4 2 4 2 4 6 7 8 7 7 8 9 8 9 8 7 5 6 7
6 4 5 4 5 2 3 2 3 3 1 5 6 6 4 4 6 7 2 3 7 7 8 6 6 5 4 5 1 3 4 5 5 6 6 6 6 5 5 4 5 5 5 4 4 5 5 5 5 6 6 7 7 7 6 5 5 5 5 8 8 7 6 5 5 5 6 6 8 8 8 7 8 7 7 7 8 7 5 4 5 6 6 7 6 7 8 8 9 9 8 8 10 9 7 7 8
8 7 5 3 3 5 2 3 3 2 3 2 1 3 1 6 6 7 2 3 8 8 8 10 9 6 4 5 3 0 4 4 5 7 7 7 6 6 6 5 5 5 4 4 4 4 5 5 6 6 5 6 6 7 6 7 7 7 6 7 7 7 7 7 7 7 8 7 8 8 8 8 9 9 8 8 8 7 6 5 5 5 5 5 6 7 7 7 8 9 9 8 7 9 8 9 9
2 4 4 3 4 2 2 1 1 2 1 1 1 5 5 6 6 7 7 2 2 2 6 7 7 7 5 4 2 1 3 5 6 7 7 8 8 7 6 5 4 3 3 3 3 5 6 6 6 7 7 8 8 7 6 5 5 6 6 5 7 6 8 9 9 9 8 8 8 8 9 8 8 8 9 8 8 9 8 7 7 6 6 7 7 8 8 9 9 9 11 10 8 6 6 9 11
4 4 4 5 3 5 6 2 2 2 1 2 5 10 5 5 3 6 8 5 3 5 4 1 2 5 5 4 2 1 4 4 5 6 7 8 8 7 7 5 5 4 2 3 5 6 6 6 6 6 7 7 6 6 6 5 4 5 5 6 6 7 6 8 9 8 7 8 7 7 7 8 8 8 9 9 6 6 6 7 6 6 7 8 8 9 9 10 8 6 3 5 9 9 7 8 8
2 3 4 3 4 2 2 4 1 0 1 1 10 7 5 6 4 4 7 4 5 9 7 8 8 7 1 4 5 3 4 5 5 8 7 7 7 7 7 5 5 3 3 2 5 5 4 5 7 8 7 6 6 6 6 3 3 4 3 3 4 5 5 6 7 7 7 7 8 8 9 10 10 9 9 10 8 7 7 7 7 8 7 8 7 8 9 9 9 7 7 6 6 9 8 7 8
3 5 7 6 4 3 1 3 2 2 3 4 3 5 2 3 4 5 5 4 7 7 8 9 8 8 6 1 6 7 7 5 6 8 8 8 8 7 6 5 4 2 1 1 2 4 6 6 6 7 6 5 6 7 7 5 5 5 5 6 5 6 7 6 8 8 8 10 9 8 9 9 9 9 9 9 9 7 8 9 8 7 9 8 7 6 8 8 8 8 8 6 7 5 8 7 8
6 6 7 5 4 4 2 3 2 4 4 5 2 4 4 2 3 5 6 3 6 7 10 10 9 9 6 4 4 5 7 9 9 9 8 7 7 6 4 3 2 2 1 1 3 5 7 7 7 7 6 5 5 5 6 6 6 5 6 7 8 8 7 5 6 7 7 6 7 8 8 8 8 9 9 9 9 8 8 8 8 9 7 7 7 8 8 8 7 7 7 9 6 6 8 9 10
7 1 9 7 5 6 7 5 5 1 3 2 1 2 6 6 2 4 5 1 7 9 10 10 10 10 9 7 5 5 5 6 8 9 8 7 6 5 4 2 2 2 2 3 5 6 7 8 7 7 6 5 4 6 8 7 6 6 6 7 8 8 8 7 5 6 6 5 7 8 7 7 8 9 9 9 9 10 10 9 8 10 9 9 8 8 7 7 7 6 7 6 6 6 8 8 10
2 3 9 11 11 9 4 4 3 1 3 5 3 3 4 2 3 2 4 3 7 9 9 9 9 9 9 9 9 7 6 7 7 8 8 7 6 5 4 3 4 5 5 5 6 7 7 7 7 7 7 6 4 6 6 6 6 5 5 6 7 7 7 6 5 5 5 7 8 7 7 7 8 9 9 10 10 11 10 9 10 9 8 8 8 7 7 8 8 8 8 6 7 7 7 5 7
3 5 5 5 5 5 3 3 4 2 3 5 7 2 4 2 2 1 3 5 6 7 7 7 7 8 8 8 9 9 9 9 9 10 9 9 8 7 6 6 7 6 6 6 6 6 7 8 8 8 8 7 6 4 6 6 5 5 5 7 9 8 6 6 6 6 7 7 8 9 8 8 8 8 8 9 9 9 9 9 10 10 8 7 6 8 7 8 9 7 10 11 11 10 8 6 8
8 8 8 5 3 2 2 3 1 3 4 3 3 2 3 6 1 2 3 3 2 4 4 6 7 8 8 8 9 9 9 9 9 10 10 10 9 7 7 8 7 7 6 8 8 8 7 8 8 9 9 8 6 5 5 6 6 6 7 8 9 10 9 7 7 8 7 9 10 10 8 9 8 8 8 8 10 10 9 10 9 8 5 7 8 7 7 8 9 9 11 11 10 10 7 7 9
11 4 5 7 3 1 2 1 1 2 3 2 2 2 5 7 3 1 2 3 4 5 4 6 8 8 8 8 8 9 10 9 9 9 10 9 9 9 8 8 8 8 8 9 9 9 8 7 7 8 9 8 9 8 7 6 6 6 7 8 9 9 9 7 8 10 9 9 7 8 8 8 9 8 7 7 8 8 8 7 7 8 9 9 8 6 6 7 7 9 10 10 12 11 9 9 9
5 4 9 11 5 3 4 3 6 6 2 2 2 3 2 5 3 5 4 5 4 5 5 5 7 8 9 9 9 8 8 9 9 9 8 9 9 9 9 9 8 9 8 9 10 9 8 7 7 8 8 9 8 7 6 5 4 4 4 5 7 7 8 9 8 9 7 6 5 7 8 8 7 7 7 7 7 9 7 8 8 8 8 8 6 6 8 7 7 9 10 11 9 10 10 11 9
7 11 9 11 9 7 3 1 2 1 1 0 2 2 3 5 4 2 5 4 6 6 7 8 8 10 10 9 9 9 9 9 9 9 9 9 9 9 9 9 8 8 8 8 8 9 9 8 8 7 7 6 5 4 6 6 6 6 5 5 6 6 7 7 8 8 6 5 5 8 8 8 7 7 6 9 7 9 9 8 8 7 7 6 6 6 7 9 10 10 9 10 12 11 10 12 10
7 1 9 5 5 5 6 6 7 6 4 1 1 4 3 7 5 6 3 3 7 6 7 9 10 10 10 9 11 12 10 10 9 10 9 9 10 10 9 10 9 10 11 10 9 9 9 8 7 7 6 6 6 6 6 7 7 7 6 5 5 3 4 6 6 7 7 6 5 8 9 8 7 5 7 8 7 9 8 7 8 9 9 9 8 8 8 9 8 7 6 6 8 7 8 8 6
5 2 3 4 8 1 4 0 1 4 3 2 4 1 2 3 2 5 3 5 7 7 9 9 10 9 10 11 10 9 9 9 8 9 10 11 10 10 9 9 9 8 9 8 10 9 8 8 8 7 6 6 6 7 8 8 8 8 7 6 5 4 4 5 5 5 6 5 7 8 9 7 6 6 7 6 10 10 8 10 10 11 10 8 10 11 10 8 7 7 6 8 9 7 7 9 7
7 4 9 3 4 9 5 2 3 2 2 1 2 1 3 4 4 7 4 3 6 7 8 9 9 9 10 10 10 10 9 9 8 9 9 11 10 10 8 9 8 8 9 9 9 8 9 8 7 7 8 8 8 8 8 8 8 9 8 4 4 4 4 5 6 7 9 9 8 7 8 6 7 7 6 7 9 10 9 10 10 10 10 10 10 9 8 7 7 7 7 7 7 7 8 9 8
8 7 7 4 1 3 4 5 0 1 4 2 0 2 2 5 4 10 8 7 5 6 8 9 9 9 10 9 9 9 9 8 9 9 10 10 9 10 9 9 9 9 9 9 9 8 7 7 8 9 9 9 9 9 8 8 8 9 7 6 4 5 7 8 9 10 9 8 6 5 5 5 6 6 6 6 8 9 8 9 9 9 9 9 8 7 8 7 6 5 3 4 5 6 6 6 7
8 8 9 6 3 7 2 3 3 5 2 2 1 2 4 7 2 9 12 11 9 8 7 8 9 9 9 8 9 9 8 8 8 8 8 8 8 8 8 8 9 8 7 8 8 7 7 8 9 9 10 9 9 8 9 8 8 6 6 6 6 6 6 8 10 11 9 8 7 5 4 6 8 6 4 4 5 5 4 6 7 8 8 8 8 8 8 7 8 7 8 7 7 7 7 7 7
5 6 8 3 1 3 5 0 3 4 3 4 1 2 3 7 3 10 12 11 10 9 7 9 10 10 7 7 6 7 6 6 6 7 8 8 8 9 9 8 8 9 8 8 8 8 11 10 9 10 9 9 9 9 9 9 9 7 7 6 5 6 6 6 8 10 10 10 8 7 5 4 7 7 5 3 5 7 8 8 8 8 8 9 9 7 7 8 8 7 7 7 6 8 7 6 5
5 9 5 3 3 2 3 3 1 3 5 2 5 3 5 4 3 8 11 12 11 9 9 9 8 9 9 8 6 6 6 6 6 7 6 8 8 9 9 8 8 8 8 8 8 9 9 10 11 10 10 10 10 10 9 8 8 8 7 7 5 4 5 5 7 8 9 11 9 8 8 7 7 8 8 9 9 9 9 9 8 8 8 10 10 9 7 6 5 6 6 6 6 6 7 6 5
10 9 7 7 8 8 9 3 2 2 5 5 5 3 3 1 1 6 11 11 11 11 11 9 9 9 9 7 7 6 5 5 6 7 8 7 8 8 8 7 8 8 10 10 9 9 9 12 11 10 10 10 10 10 9 9 8 9 8 6 5 4 4 4 3 6 9 8 9 7 7 8 10 11 9 10 10 9 8 8 7 8 8 9 10 10 7 6 7 8 8 5 6 7 7 7 6
Wind_Direction
49 2 286 343 283 282 264 13 233 111 224 227 309 191 60 245 345 305 255 315 236 72 332 302 227 230 227 218 189 29 2 134 3 198 95 14 253 170 132 136 135 135 139 141 138 140 139 131 127 126 122 121 120 118 117 116 115 112 110 111 113 115 117 121 123 123 122 123 123 122 124 125 124 121 122 122 124 126 121 120 114 113 108 109 112 113 112 110 107 106 103 101 99 94 91 90 89
71 45 59 299 302 293 152 299 77 192 52 225 222 47 240 99 195 238 304 327 309 8 33 61 73 49 56 75 112 140 73 41 40 65 104 53 126 118 133 139 139 138 139 138 136 140 140 134 128 126 122 122 123 122 121 120 117 116 116 117 118 118 120 123 123 123 124 125 125 123 124 125 125 123 121 120 122 125 122 117 115 112 113 113 111 112 111 110 109 107 106 102 96 90 86 87 88
340 290 202 228 130 17 106 307 237 63 207 231 204 214 75 144 117 189 273 336 14 235 328 302 271 292 276 204 138 349 108 72 79 81 77 127 128 125 137 139 138 134 137 137 138 140 140 139 132 129 125 124 125 126 125 123 121 119 120 121 121 122 123 125 126 124 124 125 122 122 124 126 124 123 121 115 120 120 119 117 117 114 113 113 112 111 110 108 108 107 105 99 91 88 85 86 91
62 27 304 325 129 272 112 80 89 170 196 246 283 191 187 137 166 155 238 283 285 297 284 336 337 22 306 76 18 246 74 68 38 87 109 104 111 133 135 135 133 132 135 135 138 141 141 137 131 129 128 126 126 126 126 125 123 122 122 124 124 124 126 128 126 127 129 129 126 124 125 126 128 127 127 122 119 118 110 114 116 116 113 115 113 112 111 110 108 105 100 95 91 88 86 87 92
271 40 293 32 206 125 180 73 113 152 221 172 121 96 164 206 135 232 274 287 278 251 231 285 201 28 14 18 2 345 51 101 67 59 94 85 113 141 135 137 132 133 137 138 140 140 138 135 132 131 128 128 129 129 128 126 125 124 126 125 125 128 129 127 129 132 132 129 126 127 126 126 128 127 130 122 97 111 111 109 102 103 105 107 105 104 105 106 106 106 100 96 94 92 90 88 91
88 280 37 268 320 40 101 179 173 212 272 124 261 57 92 186 246 276 292 310 281 251 216 234 328 176 129 19 356 25 358 136 35 71 67 115 149 143 134 137 135 134 134 138 138 143 140 134 134 133 132 131 132 131 129 127 126 127 127 126 129 132 132 130 132 134 130 127 126 125 124 124 126 127 127 118 105 80 77 87 94 104 112 116 117 116 113 111 109 104 98 95 92 92 92 91 92
113 150 22 94 106 288 246 231 226 232 241 184 259 270 111 188 283 287 304 341 160 104 188 206 135 140 164 130 110 60 33 12 157 47 19 132 145 141 138 137 135 132 134 136 143 139 138 133 135 136 134 134 133 131 130 129 130 130 128 130 131 134 134 135 136 134 131 129 128 126 124 123 122 123 126 120 108 97 90 94 100 106 115 122 123 122 120 115 109 102 99 96 96 99 99 98 96
69 255 10 203 89 268 190 289 257 183 242 198 270 273 220 214 234 279 296 290 16 234 131 124 96 257 73 35 170 106 44 36 44 66 139 141 143 139 139 136 133 133 134 134 144 133 132 129 133 135 135 134 134 131 131 131 131 132 132 133 135 136 137 136 134 132 133 134 129 124 122 120 121 121 121 121 117 107 103 102 105 115 121 125 126 124 119 113 108 105 104 106 108 109 108 105 103
35 76 268 161 189 54 130 238 280 191 284 247 260 239 265 257 245 256 273 228 303 231 182 161 36 220 148 160 77 98 61 42 59 99 126 138 142 136 138 138 135 132 136 142 142 133 141 131 134 135 137 137 134 133 133 133 134 135 136 138 138 136 138 138 133 130 135 133 129 127 126 123 124 122 122 123 126 126 123 120 118 122 125 123 122 123 120 117 112 109 109 112 115 115 113 111 111
89 303 139 85 50 218 9 231 234 201 242 264 281 284 267 218 233 216 250 251 235 175 167 64 161 296 123 150 131 104 42 50 88 91 118 133 134 134 133 132 130 132 136 144 141 136 138 134 133 136 137 136 136 136 135 136 138 138 140 140 136 135 138 137 133 135 136 134 132 131 126 125 125 126 128 125 130 127 124 122 117 122 126 125 124 128 125 120 115 113 113 116 120 119 117 115 113
125 52 3 181 178 233 227 245 246 269 259 289 282 258 259 261 230 217 221 254 221 186 147 227 194 128 167 98 58 74 79 93 92 93 124 128 131 131 128 126 125 132 140 144 141 138 139 142 134 135 133 132 134 131 133 138 137 137 135 134 133 132 132 133 134 131 130 132 132 125 122 127 130 132 130 130 130 125 119 112 115 124 130 132 132 129 124 119 115 113 114 116 120 121 120 117 114
133 177 170 158 213 222 203 252 270 281 290 290 280 20 69 251 171 185 187 194 175 161 163 204 88 145 126 115 118 104 84 89 95 101 118 127 124 124 126 127 129 134 139 142 140 138 140 140 143 134 127 127 127 129 133 133 133 131 129 129 131 130 133 133 130 132 137 135 134 127 126 134 138 141 135 130 127 123 119 117 119 123 128 130 129 128 123 114 114 115 117 121 127 128 124 120 118
123 143 139 172 174 204 82 272 269 303 305 316 338 6 2 178 198 224 165 139 150 152 170 189 111 293 154 148 75 112 92 107 108 116 125 127 122 125 128 129 129 135 138 141 140 139 140 143 143 144 136 131 126 127 129 130 129 128 129 131 132 131 132 133 132 133 135 135 134 133 134 137 141 136 132 133 131 129 124 120 118 121 125 127 126 124 118 116 117 122 124 131 134 132 127 123 122
167 201 161 204 46 208 218 278 249 295 338 347 214 300 334 308 295 177 143 130 161 157 44 101 151 6 64 288 137 120 108 124 121 121 128 126 127 127 130 129 134 135 139 141 140 142 141 142 142 141 142 142 140 134 127 126 128 131 133 134 134 135 138 140 139 138 140 142 140 138 142 144 142 142 141 133 126 119 115 114 117 122 125 124 121 122 117 118 121 123 126 135 136 131 128 125 123
172 181 112 71 154 209 190 234 20 208 331 1 9 339 351 48 53 138 206 131 147 10 99 48 27 253 126 218 111 145 139 133 129 121 127 129 129 129 126 133 132 130 132 134 141 144 140 140 140 147 145 146 144 144 144 134 133 136 137 139 141 143 143 140 139 142 144 146 142 146 151 151 148 144 139 133 125 120 112 104 102 112 120 122 122 121 119 120 123 127 133 136 133 131 129 123 123
129 148 62 202 195 228 171 227 150 316 1 225 19 323 246 72 13 180 43 293 124 107 281 119 36 359 9 0 59 128 137 136 129 123 117 124 128 127 130 131 126 127 125 131 134 139 140 141 140 146 143 146 144 147 148 147 142 142 145 147 148 147 145 147 148 149 151 150 150 152 155 155 152 151 147 142 135 127 121 119 123 121 123 121 121 121 120 123 126 130 130 130 129 131 124 119 121
136 255 167 100 225 198 165 213 174 163 316 274 307 5 359 352 52 76 248 159 135 121 66 50 57 9 37 55 110 135 135 130 130 128 130 130 132 127 130 130 130 126 131 138 139 137 136 138 139 147 146 148 145 147 150 152 152 152 152 150 149 149 147 149 151 151 153 156 156 155 159 164 162 157 156 151 143 137 127 126 128 126 127 125 123 122 122 120 123 124 129 122 127 124 116 117 120
192 180 149 201 205 203 199 211 197 59 305 334 340 355 319 346 69 92 105 71 79 104 97 102 81 65 66 113 129 134 133 133 135 132 132 134 140 135 136 138 143 144 144 148 145 143 138 144 142 149 149 153 151 152 158 159 157 161 160 157 158 154 154 156 158 159 163 159 157 157 166 167 166 162 158 147 151 136 132 125 127 132 132 130 126 123 118 117 120 114 116 120 126 128 132 132 125
171 112 204 226 182 219 184 211 231 282 325 319 311 343 295 28 150 113 168 116 146 161 129 88 125 90 99 119 129 137 134 133 139 134 132 137 145 149 149 151 153 149 148 148 147 150 149 147 146 157 158 158 159 162 164 163 162 163 162 161 161 163 164 166 170 164 166 161 161 167 167 163 168 159 159 153 147 136 130 130 130 130 135 131 128 126 123 118 110 103 113 114 129 139 152 139 140
183 194 197 228 158 253 225 223 268 220 306 311 328 355 335 338 333 57 252 141 190 191 176 178 194 155 134 134 139 139 138 137 138 137 144 138 143 151 150 154 155 155 157 158 153 151 155 150 160 165 166 163 166 169 167 166 165 166 165 163 166 173 171 171 167 165 164 165 166 169 169 163 165 167 141 141 144 148 135 132 130 133 133 131 131 131 123 108 105 104 112 123 139 157 147 149 143
140 210 216 231 153 251 233 201 245 265 218 291 314 309 324 359 282 260 156 145 206 256 241 210 198 164 153 147 144 144 141 140 143 141 147 151 147 153 141 155 162 155 142 138 145 158 155 163 163 170 167 167 172 173 169 165 164 166 168 166 171 172 172 169 165 166 170 170 169 170 170 162 165 178 163 159 164 154 157 156 151 149 147 139 135 134 144 136 152 141 137 153 157 153 150 143 143
134 225 279 203 128 242 250 246 214 212 130 210 312 331 358 301 258 214 186 185 169 221 335 269 65 147 150 149 149 145 145 144 149 149 154 158 163 162 135 145 149 150 137 155 156 159 162 168 168 168 170 173 176 174 169 160 163 169 170 169 173 171 175 169 163 164 173 176 175 170 170 169 171 176 169 170 157 164 168 170 165 155 147 135 147 142 144 152 151 147 147 152 155 155 145 141 134
209 211 257 243 227 264 317 80 140 171 299 310 301 319 297 50 288 271 252 305 328 331 299 55 115 137 143 141 145 145 148 149 153 160 162 163 165 176 158 145 155 162 163 160 163 162 166 170 174 173 177 180 182 176 167 167 169 170 171 170 172 170 175 167 173 173 179 181 177 176 176 175 173 175 176 175 170 168 174 180 175 156 148 142 140 139 135 149 153 146 146 148 152 154 149 140 136
251 226 182 251 213 240 260 283 221 279 289 270 229 11 293 319 269 90 250 102 310 332 110 113 121 128 137 139 148 147 153 155 162 171 172 168 167 174 180 164 160 157 171 160 165 169 169 178 177 180 183 186 186 179 173 174 173 169 169 167 174 169 173 177 172 181 179 179 173 179 180 178 178 175 177 178 177 176 171 190 176 165 157 142 137 139 144 151 150 143 139 143 155 158 154 148 145
207 244 222 257 233 243 262 264 273 261 255 262 263 254 251 218 223 141 237 324 339 85 111 117 124 128 136 139 145 151 154 160 167 170 166 172 176 163 173 187 174 167 166 165 165 171 175 181 185 189 187 189 184 178 176 168 163 163 169 174 175 170 182 174 180 182 178 172 181 180 182 181 182 180 182 185 186 187 174 185 190 183 177 143 140 144 149 148 151 151 146 151 156 157 156 152 148
208 225 168 232 246 299 282 282 265 236 258 197 212 202 265 243 76 194 277 323 103 127 116 120 128 129 137 142 147 156 161 165 168 170 177 171 179 183 181 184 180 187 181 170 168 175 184 185 196 193 186 181 170 172 170 165 164 168 176 180 180 181 183 172 177 180 179 172 170 190 196 188 185 183 184 187 186 184 193 188 191 188 182 168 142 155 150 154 153 159 157 153 156 159 161 153 156
175 213 222 243 262 317 299 254 274 286 260 192 241 139 117 123 215 206 167 215 155 139 119 128 135 139 142 147 153 160 166 172 172 171 168 176 183 194 194 188 196 194 189 187 187 190 185 192 181 184 165 162 172 174 164 165 171 176 183 188 188 184 173 163 174 181 185 187 180 183 194 195 191 186 181 180 181 182 203 201 196 196 184 174 158 152 142 148 153 162 167 163 164 166 160 155 166
159 187 210 247 260 257 253 280 268 298 286 174 212 156 180 79 183 252 177 183 175 146 138 144 138 147 150 153 161 164 171 175 173 170 175 183 191 196 199 202 201 197 192 201 206 212 195 192 167 156 157 154 168 167 162 171 186 172 167 199 199 181 163 168 190 201 200 198 189 183 193 200 196 191 187 179 176 188 196 206 206 199 192 174 167 160 150 150 159 148 157 148 143 150 148 152 153
180 174 219 220 224 257 204 244 359 182 255 173 169 185 165 164 199 210 177 165 173 157 149 147 151 156 161 162 165 168 176 175 177 185 193 193 194 201 206 207 203 202 207 209 209 211 215 212 191 179 188 187 181 170 160 166 190 162 178 195 207 171 165 182 205 213 210 208 204 197 197 202 203 197 189 179 181 185 195 199 205 209 201 180 175 160 147 152 148 147 151 147 140 132 134 145 152
116 176 247 259 255 260 234 103 142 191 236 216 209 216 201 173 170 157 174 169 167 158 159 164 167 172 168 171 172 173 182 179 184 193 194 196 203 210 215 204 203 203 207 213 211 209 207 217 222 237 234 231 215 188 172 174 179 180 178 178 163 164 196 205 210 222 222 216 214 210 204 202 203 199 191 194 187 190 194 197 201 207 211 194 186 176 173 175 164 153 150 153 136 145 146 150 154
194 135 167 255 210 223 99 50 88 217 146 220 245 228 190 352 232 174 179 181 177 171 174 173 175 182 179 184 181 184 188 184 181 192 190 197 205 216 217 205 196 197 185 203 206 208 204 201 192 218 214 202 169 159 169 166 172 154 178 181 152 180 202 212 226 226 224 220 221 223 215 204 204 199 198 201 202 200 193 192 192 199 202 201 199 197 198 184 177 161 154 146 150 147 148 152 156
107 157 198 125 214 208 313 123 198 225 70 353 202 252 236 269 61 121 183 189 212 191 164 177 181 196 188 193 191 186 177 168 176 191 197 199 204 203 200 195 191 191 199 199 200 203 208 209 204 213 204 182 169 163 166 159 159 156 153 171 194 177 215 238 245 249 246 239 234 235 291 310 243 224 207 204 210 209 194 191 193 186 187 191 201 194 200 196 183 159 156 155 147 151 151 148 147
19 221 112 161 185 229 312 115 240 349 89 64 237 236 99 224 342 127 177 188 198 209 191 199 199 214 203 210 201 191 145 125 149 199 206 206 189 194 183 167 181 194 201 197 195 199 204 204 208 211 214 199 163 171 182 168 151 132 126 168 269 247 211 220 223 243 255 251 241 51 54 334 318 320 273 257 224 226 219 201 201 192 176 187 193 192 198 195 181 163 166 174 151 151 151 140 145
170 336 143 139 197 164 199 22 102 167 220 177 216 216 218 319 326 127 164 193 195 199 206 215 218 229 218 230 223 185 118 120 130 165 201 208 174 147 142 151 165 187 199 199 197 199 199 202 212 212 205 160 156 173 178 171 179 177 166 170 166 205 220 224 228 234 247 330 69 207 184 195 197 192 275 236 245 246 237 225 208 185 174 179 184 190 190 187 180 170 166 166 171 152 144 147 149
159 162 157 157 73 258 255 156 114 170 40 195 179 240 251 268 334 121 160 188 210 217 210 223 235 245 240 249 245 122 85 77 85 132 191 168 131 126 129 136 152 172 186 188 193 194 202 203 201 206 175 136 158 163 172 179 190 180 158 161 195 203 202 220 218 230 230 134 158 214 199 193 182 164 160 166 208 246 244 236 222 190 164 180 182 188 180 184 177 173 158 159 161 165 155 155 152
165 176 175 142 162 165 187 207 328 328 162 170 187 217 225 243 264 102 135 183 206 222 230 236 242 242 238 249 249 73 78 77 97 116 124 95 113 122 123 130 137 140 139 153 185 195 205 203 197 201 179 164 172 177 172 173 174 171 155 159 240 243 209 223 225 225 218 178 183 204 209 193 182 176 170 173 180 217 230 192 223 224 214 197 192 179 175 177 174 169 163 158 151 144 149 150 149
104 93 134 147 151 159 285 273 287 358 232 209 196 226 233 238 35 22 16 175 204 221 226 233 239 237 238 257 310 60 68 79 101 97 99 101 107 104 107 113 117 116 123 139 170 205 211 206 190 188 184 185 193 204 198 168 161 169 181 180 191 213 211 211 228 221 220 201 198 204 201 195 194 183 177 172 192 206 185 177 213 207 211 213 194 182 173 177 176 164 162 162 156 149 149 153 155
136 127 132 137 187 181 151 106 34 36 235 83 347 192 336 16 13 23 67 176 205 222 236 244 246 251 256 274 329 113 107 113 112 99 103 103 100 99 99 107 117 124 129 149 174 193 206 197 192 178 185 186 208 217 206 183 187 196 195 198 199 199 200 203 213 217 215 205 202 207 207 198 194 191 191 195 200 192 171 174 202 219 213 211 196 163 155 160 169 167 162 160 166 159 157 165 158
111 165 134 158 186 269 322 275 328 35 242 46 177 117 34 21 36 37 38 141 92 349 244 251 263 257 245 263 239 148 124 107 90 92 101 103 100 95 95 102 101 71 120 155 183 196 200 205 206 196 199 201 208 211 205 210 207 208 215 209 202 200 210 211 209 209 206 209 218 216 218 214 202 191 193 197 208 198 183 174 194 203 199 207 184 165 160 154 169 179 174 163 158 160 154 171 169
150 140 168 180 115 179 175 86 23 23 350 125 144 97 67 36 52 52 38 25 24 15 8 316 323 262 228 222 223 194 109 112 102 99 99 101 94 86 84 87 90 78 111 168 185 205 197 198 198 204 204 208 210 216 216 218 203 203 216 230 218 216 219 218 220 211 208 200 208 215 220 219 211 193 190 202 204 198 172 176 178 193 201 203 192 173 171 168 168 159 159 173 153 155 164 175 184
341 211 202 159 172 203 207 136 280 20 95 131 125 101 97 29 34 35 29 13 49 26 38 37 28 26 10 131 105 93 119 129 126 113 110 107 99 87 85 82 97 85 80 164 188 205 210 216 214 203 201 208 216 204 205 180 176 181 195 225 240 230 240 226 218 213 191 188 200 207 215 209 207 203 197 198 202 202 194 188 193 196 194 203 193 179 175 174 174 166 160 160 174 156 166 172 180
177 248 216 202 182 186 203 56 319 177 130 213 226 148 80 62 59 32 2 7 46 28 38 30 21 15 11 219 102 98 98 115 126 114 105 104 106 102 92 88 81 96 116 1 238 223 245 248 231 229 229 227 215 205 205 182 197 203 200 213 217 222 234 230 230 227 210 207 208 211 214 206 204 204 203 199 201 197 200 201 190 192 195 195 187 185 179 172 165 171 171 171 192 176 158 164 178
178 205 200 204 183 179 170 146 147 187 186 160 14 241 129 112 68 20 2 0 57 55 45 35 26 17 16 38 90 110 116 107 101 97 96 99 103 98 83 75 57 19 349 271 270 258 254 259 248 235 233 225 223 215 200 201 214 220 232 243 250 252 257 255 268 266 248 227 228 223 221 214 213 208 204 204 202 196 193 194 191 190 184 186 181 179 184 177 168 170 182 196 185 157 157 169 183
196 239 174 181 171 200 212 173 213 243 12 47 122 278 146 153 87 13 325 77 54 45 38 36 32 29 38 45 65 109 113 119 113 100 96 87 83 84 81 77 57 11 253 254 257 266 267 266 265 255 247 245 227 210 202 196 210 220 229 247 258 266 271 280 274 260 265 251 242 241 239 235 228 224 214 205 202 201 195 190 188 193 186 186 187 192 178 164 144 171 179 192 184 166 177 184 187
198 167 175 177 199 211 171 194 182 235 207 161 168 245 149 134 84 11 348 77 35 39 31 30 34 41 43 43 48 51 95 112 127 130 115 101 89 65 51 53 33 15 356 334 316 302 296 289 276 271 264 254 235 228 223 215 223 224 226 239 250 251 264 268 258 240 240 246 251 250 245 241 234 224 214 204 202 201 185 185 182 185 188 186 193 186 176 163 156 160 176 186 194 195 195 188 176
227 121 86 68 65 65 196 182 158 195 200 199 169 314 164 141 43 350 44 60 41 26 29 36 41 52 52 47 47 45 41 48 50 48 54 65 54 46 42 42 29 12 345 335 322 313 304 295 284 277 277 279 280 272 261 255 240 238 233 236 243 248 241 244 243 244 246 249 254 252 249 245 238 228 215 206 204 198 189 183 177 181 181 184 196 186 176 170 165 172 184 194 201 205 200 191 199
114 134 120 111 77 95 88 81 134 157 211 185 19 318 251 149 164 1 27 37 11 5 39 47 55 64 70 59 53 52 51 50 51 55 56 60 58 51 40 39 24 14 357 344 336 329 318 313 308 301 300 302 296 289 279 269 262 248 246 251 253 252 248 243 243 243 245 249 253 255 249 254 248 235 214 213 207 200 195 187 184 171 168 192 194 188 181 176 174 181 196 196 198 195 187 191 213
151 159 146 135 107 128 141 152 179 204 189 69 10 326 291 183 174 162 104 100 47 31 41 51 66 69 64 53 52 53 53 53 53 52 51 51 51 47 40 33 26 18 14 6 354 345 334 326 328 327 315 315 319 322 321 312 302 294 291 284 272 259 249 241 239 245 243 244 248 263 261 253 251 240 226 215 211 204 196 180 185 183 191 188 190 186 185 182 186 194 188 183 198 189 184 192 209
212 155 163 176 163 149 183 193 195 202 176 58 306 333 147 41 48 130 105 70 75 63 60 72 72 75 73 74 65 57 56 58 57 56 55 50 47 43 37 31 27 22 18 17 13 9 10 0 348 339 334 334 341 350 3 355 330 307 292 279 276 272 260 251 252 249 242 234 234 264 262 246 248 244 234 225 215 203 199 184 197 197 193 193 186 178 188 194 195 201 187 184 179 191 201 201 198
190 190 173 175 168 171 162 160 13 8 101 162 322 296 67 92 124 140 127 73 79 82 78 76 77 79 82 80 77 73 69 65 63 64 61 58 54 52 46 39 30 21 17 21 14 19 19 16 16 10 349 327 319 301 299 296 292 281 273 287 287 275 257 251 253 251 242 232 232 240 239 242 240 240 233 225 211 190 193 192 187 180 188 178 178 171 188 204 201 202 191 183 189 197 197 198 203
204 47 187 195 155 163 159 173 173 180 144 111 30 210 132 168 145 143 103 90 106 90 85 83 81 80 84 86 77 68 64 58 56 54 50 49 50 46 40 34 29 20 17 18 18 16 15 16 14 13 351 336 321 304 294 290 280 265 273 284 271 240 267 268 264 262 256 245 249 261 258 250 246 237 233 215 201 192 190 172 182 181 178 175 180 194 198 201 193 184 190 199 183 199 197 197 197
193 168 6 164 193 119 146 88 114 135 127 137 31 28 30 54 115 123 118 114 98 94 82 83 74 71 73 69 63 62 59 52 45 48 47 44 39 40 37 34 28 22 18 17 18 20 21 19 12 9 0 350 338 327 318 308 298 293 293 288 277 259 208 215 246 255 251 237 240 253 254 237 241 240 231 216 207 195 189 198 195 192 183 180 184 196 190 187 182 183 182 200 195 178 184 198 180
168 163 199 175 62 107 101 96 20 49 66 69 14 287 158 130 199 161 185 133 96 90 90 81 78 75 69 63 61 59 56 52 47 45 43 44 44 41 38 35 31 25 23 20 17 14 17 21 17 21 20 12 2 346 330 318 304 299 295 268 243 232 216 211 215 223 229 220 228 236 252 244 243 237 219 215 206 200 197 199 195 192 190 189 188 184 180 183 178 187 198 198 194 180 193 199 205
114 201 176 115 45 38 135 154 73 33 181 93 22 181 172 180 163 155 172 190 147 114 97 98 89 79 69 59 59 59 55 51 48 47 47 44 42 38 36 34 28 26 26 20 16 7 7 11 14 18 16 8 359 351 337 326 317 307 301 288 244 206 196 201 201 205 204 208 208 233 278 261 242 235 221 205 194 196 195 193 192 187 188 182 178 171 178 173 172 174 148 217 215 199 193 190 193
175 173 151 178 154 188 355 114 165 157 136 133 141 264 251 233 123 166 176 181 161 130 114 110 101 87 80 68 63 61 55 48 45 47 46 46 44 41 39 32 25 20 18 17 7 4 4 8 9 10 7 359 350 346 338 330 326 314 311 305 289 254 226 206 199 207 198 198 207 198 219 250 258 232 230 193 185 185 167 187 193 190 180 172 162 174 169 157 162 171 183 193 197 195 189 187 190
14 119 144 324 213 137 160 215 116 149 129 132 148 125 235 213 209 184 175 171 153 147 132 105 91 88 87 82 70 59 54 44 43 44 48 49 48 44 40 32 24 23 20 12 6 5 8 6 6 6 1 356 345 340 336 332 330 323 319 314 300 288 263 240 218 200 188 198 194 185 183 225 241 238 215 242 197 195 192 186 191 188 177 160 171 173 165 165 168 179 187 195 181 191 183 174 168
146 165 160 140 37 343 67 48 46 169 148 168 132 189 250 235 148 159 172 164 149 150 129 106 96 89 85 78 71 69 61 50 46 43 36 39 37 36 35 24 19 16 19 12 7 5 2 5 2 357 354 349 345 339 333 331 327 326 325 316 307 290 267 257 241 217 198 188 181 174 170 189 219 226 208 209 211 202 195 191 183 180 172 167 165 161 168 162 163 176 193 187 173 184 184 171 168
163 163 165 146 132 140 166 165 100 69 140 154 152 199 236 56 293 162 161 154 146 129 112 103 103 98 91 79 71 61 55 41 39 35 32 28 24 22 24 23 21 21 16 10 5 2 2 7 1 356 350 353 344 339 332 324 326 334 330 319 301 280 247 218 230 224 216 195 176 178 168 191 210 218 206 204 203 200 196 181 178 177 172 159 158 159 169 164 172 178 186 175 172 182 184 171 174